Torna al catalogo

COSMOS 1412 COOLANT

LostLEO
NORAD 29204·DEBRIS·🇷🇺 Russia

Lanciato Oct 2, 1982 da Baikonur Cosmodrome

Loading…

Prossimi Passaggi (prossime 24 ore)

TLE

ObsoletoSource: Space-Track

Epoca: Dec 8, 2023, 01:29 UTC

1 29204U 82099F   23342.06212725  .00000020  00000-0  91535-4 0  9993
2 29204  64.8118 216.0841 0073887 294.2341  65.1011 13.87728408494916

Traccia COSMOS 1412 COOLANT in tempo reale con AllMySat

Download on the App Store